Regional Weather Roundup
Issued by NWS Sterling, VA

Home | Current Version | Previous Version | Text Only | Print | Product List | Glossary On
Versions: 1 2 3 4 5 6 7 8 9 10 11 12 13 14 15 16 17 18 19 20 21 22 23 24 25 26 27 28 29 30 31 32 33 34 35 36 37 38 39 40 41 42 43 44 45 46 47 48 49 50
407
ASUS41 KLWX 222011
RWRLWX

REGIONAL WEATHER ROUNDUP
NATIONAL WEATHER SERVICE BALTIMORE MD/WASHINGTON DC
300 PM EST WED NOV 22 2017

Note: "FAIR" indicates few or no clouds below 12,000 feet
with no significant weather and/or obstructions to visibility.
 TC=TEMPERATURE CELSIUS

 * =Non NWS site. Station does not report precipitation (e.g. rain,
    snow, etc.), thunder, or fog.

DCZ001-MDZ009-015-VAZ040>042-051-053>054-222100-
WASHINGTON METRO

CITY           SKY/WX    TMP DP  RH WIND       PRES   REMARKS
WASHINGTON NAT MOSUNNY   52  30  43 N25G35    30.05R
DULLES         MOSUNNY   51  29  42 N16G28    30.06R
ANDREWS AFB    MOSUNNY   48  28  45 NW17G30   30.03R
FT BELVOIR     SUNNY     52  28  39 NW12G26   30.04R
QUANTICO       SUNNY     53  30  41 N16G25    30.06
COLLEGE PARK*  MOSUNNY   50  28  42 NW10G17   30.04R
LEESBURG*      PTSUNNY   48  32  53 N13G21    30.07R
MANASSAS*      CLOUDY    52  30  43 N18G28    30.07R
GAITHERSBURG*  PTSUNNY   48  28  46 NW8G22    30.05R

$$

MDZ006>007-011-014-222100-
BALTIMORE METRO

CITY           SKY/WX    TMP DP  RH WIND       PRES   REMARKS
BWI AIRPORT    MOSUNNY   50  28  42 NW17G28   30.02R
MD SCIENCE CTR   N/A     51  28  41 MISG      30.00F
MARTIN STATE   MOSUNNY   52  30  43 NW20G28   30.03R
ANNAPOLIS      MOSUNNY   52  33  48 NW17G28   30.02R
FORT MEADE*    MOSUNNY   50  30  46 NW17G24   30.05R

$$

MDZ012-015-019>023-222100-
MARYLAND EASTERN SHORE

CITY           SKY/WX    TMP DP  RH WIND       PRES   REMARKS
OCEAN CITY     SUNNY     58  38  47 NW12G24   29.92S
SALISBURY      SUNNY     56  38  50 NW22G28   29.95R
BAY BRIDGE AP* SUNNY     52  32  46 NW18G25   30.01R
CAMBRIDGE*     SUNNY     54  32  43 NW14G21   29.99R
EASTON*        MOSUNNY   54  30  40 NW20G26   30.03R

$$

MDZ017>025-222100-
SOUTHERN MARYLAND

CITY           SKY/WX    TMP DP  RH WIND       PRES   REMARKS
PATUXENT RIVER MOSUNNY   54  35  48 NW21      30.00R
ST INIGOES     SUNNY     55  32  41 W14G24    29.99R
LEONARDTOWN*   SUNNY     54  32  43 NW8G16    30.01R

$$

MDZ003>005-222100-
NORTH CENTRAL MARYLAND

CITY           SKY/WX    TMP DP  RH WIND       PRES   REMARKS
FREDERICK*     PTSUNNY   48  25  40 NW15      30.10R
HAGERSTOWN APT MOSUNNY   46  27  47 N21G28    30.07R
WESTMINSTER*   CLOUDY    46  30  53 NW14G20   30.03R

$$

MDZ501>502-222100-
WESTERN MARYLAND

CITY           SKY/WX    TMP DP  RH WIND       PRES   REMARKS
OAKLAND*       CLOUDY    28  25  86 NW8G16    30.03S WCI  20
CUMBERLAND*    CLOUDY    41  28  60 NW8G26    30.17R

$$

VAZ025>031-222100-
SHENANDOAH VALLEY

CITY           SKY/WX    TMP DP  RH WIND       PRES   REMARKS
WINCHESTER*    MOSUNNY   45  27  49 NW16G25   30.08R
FRONT ROYAL*   SUNNY     45  27  49 MISG      30.07S
LURAY*         SUNNY     45  27  49 NW13G23   30.09R
NEW MARKET*    SUNNY     44  23  44 N12G18    30.09R
STAUNTON*      SUNNY     47  24  41 N15       30.09R
WAYNESBORO*    SUNNY     48  23  37 NW9G17    30.06R

$$

WVZ021-048>050-054>055-222100-
EASTERN WEST VIRGINIA PANHANDLE

CITY           SKY/WX    TMP DP  RH WIND       PRES   REMARKS
MARTINSBURG    SUNNY     46  27  47 NW10G25   30.08R
PETERSBURG*    CLOUDY    41  25  53 W14G21    30.14S

$$

VAZ036>039-050-222100-
CENTRAL FOOTHILLS

CITY           SKY/WX    TMP DP  RH WIND       PRES   REMARKS
CHARLOTTESVILL SUNNY     53  25  33 N8G18     30.05R
CULPEPER*      SUNNY     52  25  35 N12G18    30.07R
ORANGE*        SUNNY     52  28  40 N9        30.05R
GORDONSVILLE*  SUNNY     54  27  35 NW10G17   30.04R
WARRENTON*     NOT AVBL

$$

VAZ055>057-222100-
NORTH AND CENTRAL PIEDMONT

CITY           SKY/WX    TMP DP  RH WIND       PRES   REMARKS
FREDERICKSBRG* SUNNY     53  32  45 N16G25    30.04R
STAFFORD*      SUNNY     51  29  41 N20G26    30.09R

$$

NCZ024-NYZ072-PAZ021-071-VAZ022-071-222100-
OTHER REGIONAL OBSERVATIONS

CITY           SKY/WX    TMP DP  RH WIND       PRES   REMARKS
NEW YORK CITY  CLOUDY    50  33  52 NW12G22   29.93R
PHILADELPHIA   PTSUNNY   50  33  52 N16G26    29.98R
PITTSBURGH     CLOUDY    34  25  69 NW10      30.18S WCI  26
ROANOKE        SUNNY     51  25  36 W15       30.10R
RICHMOND       MOSUNNY   61  32  33 N16       29.99R
RALEIGH        PTSUNNY   62  32  32 VRB7      30.01S

$$

ANZ530>537-222100-
MARINE OBSERVATIONS

STATION/POSITION TIME  TEMP    WIND        PRES
                       AIR SEA DIR/SP/G
                 (UTC) (F)     (DEG/KT/KT) (MB)
THOMAS PT LIGHT  2000   50 53  330/ 21/ 24   N/A
BALT KEY BRIDGE  1936   50     310/ 18/ 21 1016.0R
COVE POINT       1936   52     350/ 26/ 31 1016.2R
LEWISETTA        1936   54 52  330/ 16/ 20 1015.7R
SOLOMONS ISLAND  1936   54 54  320/ 11/ 22 1015.3R
PINEY POINT      1948          340/ 22/ 24   N/A

$$





USA.gov is the U.S. government's official web portal to all federal, state and local government web resources and services.